AF1HS Weather Reports


Display with metric or nautical units.
time (UTC)temp
F
wind
direction
speed
MPH
gust
MPH
rain 1hr
in
rain 24hr
in
rain mn
in
humidity
%
barometer
mb
20180421092155 29 305 0.0 0.0 0.00 0.00 0.00 68 1024.4
20180421091654 30 305 0.0 0.0 0.00 0.00 0.00 68 1024.0
20180421090646 30 305 0.0 0.0 0.00 0.00 0.00 68 1024.7
20180421090202 30 305 0.0 0.0 0.00 0.00 0.00 68 1025.0
20180421085320 30 305 0.0 0.0 0.00 0.00 0.00 67 1024.5
20180421084658 30 305 0.0 0.0 0.00 0.00 0.00 67 1024.0
20180421083137 31 305 0.0 0.0 0.00 0.00 0.00 66 1025.0
20180421082655 31 305 0.0 0.0 0.00 0.00 0.00 66 1025.0
20180421082131 31 305 0.0 0.0 0.00 0.00 0.00 66 1025.0
20180421081638 31 305 0.0 0.0 0.00 0.00 0.00 66 1025.0
20180421081135 31 305 0.0 0.0 0.00 0.00 0.00 66 1025.0
20180421080133 32 305 0.0 0.0 0.00 0.00 0.00 66 1025.0
20180421075234 33 305 0.0 0.0 0.00 0.00 0.00 65 1024.0
20180421074200 33 305 0.0 0.0 0.00 0.00 0.00 65 1024.0
20180421073653 33 305 0.0 0.0 0.00 0.00 0.00 65 1024.0
20180421073134 33 305 0.0 0.0 0.00 0.00 0.00 65 1024.0
20180421072638 33 305 0.0 2.0 0.00 0.00 0.00 66 1024.0
20180421072139 33 305 0.0 2.0 0.00 0.00 0.00 65 1024.0
20180421071636 33 305 0.0 0.0 0.00 0.00 0.00 65 1024.0
20180421070134 34 305 0.0 0.0 0.00 0.00 0.00 65 1024.0
20180421065156 34 305 0.0 0.0 0.00 0.00 0.00 64 1024.0
20180421064632 34 305 0.0 0.0 0.00 0.00 0.00 64 1024.0
20180421064126 34 305 0.0 0.0 0.00 0.00 0.00 64 1024.0
20180421063647 34 305 0.0 0.0 0.00 0.00 0.00 64 1024.0
20180421063018 34 305 0.0 0.0 0.00 0.00 0.00 64 1024.0
20180421062424 34 305 0.0 0.0 0.00 0.00 0.00 64 1024.0
20180421061154 35 305 0.0 0.0 0.00 0.00 0.00 63 1024.0
20180421060642 35 305 0.0 0.0 0.00 0.00 0.00 63 1024.0
20180421060129 35 305 0.0 0.0 0.00 0.00 0.00 63 1024.0
20180421055619 35 305 0.0 0.0 0.00 0.00 0.00 63 1024.0
20180421055141 35 305 0.0 0.0 0.00 0.00 0.00 63 1024.0
20180421054650 35 305 0.0 0.0 0.00 0.00 0.00 63 1024.0
20180421054156 35 305 0.0 0.0 0.00 0.00 0.00 63 1024.0
20180421053654 35 305 0.0 3.0 0.00 0.00 0.00 63 1024.0
20180421053139 35 305 2.0 5.0 0.00 0.00 0.00 64 1024.0
20180421052624 35 307 3.0 5.0 0.00 0.00 0.00 64 1024.0
20180421052149 35 313 3.0 6.0 0.00 0.00 0.00 63 1024.0
20180421050141 36 314 3.0 6.0 0.00 0.00 0.00 61 1024.0
20180421045715 36 307 1.0 6.0 0.00 0.00 0.00 60 1024.0
20180421045158 36 297 0.0 5.0 0.00 0.00 0.00 60 1024.0
20180421044639 36 309 2.0 6.0 0.00 0.00 0.00 60 1024.0
20180421044142 36 307 3.0 5.0 0.00 0.00 0.00 60 1024.0
20180421043627 36 304 3.0 6.0 0.00 0.00 0.00 59 1024.0
20180421043216 36 311 3.0 3.0 0.00 0.00 0.00 58 1024.0
20180421042621 36 308 3.0 6.0 0.00 0.00 0.00 58 1024.0
20180421042127 37 321 3.0 6.0 0.00 0.00 0.00 57 1024.0
20180421041518 37 316 3.0 6.0 0.00 0.00 0.00 57 1024.0
20180421041020 37 326 5.0 9.0 0.00 0.00 0.00 57 1024.0
20180421040620 37 322 5.0 10.0 0.00 0.00 0.00 57 1024.0
20180421040253 37 312 3.0 10.0 0.00 0.00 0.00 57 1024.0
20180421035626 37 314 5.0 8.0 0.00 0.00 0.00 57 1024.0
20180421035131 37 314 6.0 8.0 0.00 0.00 0.00 57 1024.0
20180421034649 37 309 5.0 8.0 0.00 0.00 0.00 57 1024.0
20180421033655 37 328 5.0 7.0 0.00 0.00 0.00 56 1024.0
20180421033202 37 344 6.0 10.0 0.00 0.00 0.00 56 1024.0
20180421031657 38 330 7.0 12.0 0.00 0.00 0.00 55 1024.0
20180421030342 38 335 8.0 12.0 0.00 0.00 0.00 55 1024.0
20180421025656 38 333 6.0 12.0 0.00 0.00 0.00 55 1024.0
20180421024650 38 316 7.0 9.0 0.00 0.00 0.00 55 1024.0
20180421024144 38 329 3.0 9.0 0.00 0.00 0.00 55 1024.0
20180421023632 38 321 5.0 9.0 0.00 0.00 0.00 55 1024.0
20180421022653 38 316 6.0 12.0 0.00 0.00 0.00 55 1024.0
20180421022156 38 311 6.0 12.0 0.00 0.00 0.00 55 1024.0
20180421021652 38 302 7.0 12.0 0.00 0.00 0.00 55 1024.0
20180421021145 38 326 3.0 10.0 0.00 0.00 0.00 55 1024.0
20180421020644 38 312 3.0 7.0 0.00 0.00 0.00 55 1024.0
20180421020132 38 272 6.0 6.0 0.00 0.00 0.00 55 1024.0
20180421015641 39 295 3.0 6.0 0.00 0.00 0.00 55 1024.0
20180421014643 39 310 5.0 8.0 0.00 0.00 0.00 55 1023.0
20180421014128 39 305 3.0 8.0 0.00 0.00 0.00 55 1023.0
20180421013636 39 306 5.0 8.0 0.00 0.00 0.00 55 1023.0
20180421013123 39 310 3.0 12.0 0.00 0.00 0.00 55 1023.0
20180421012628 39 308 5.0 7.0 0.00 0.00 0.00 54 1023.0
20180421012134 39 303 6.0 8.0 0.00 0.00 0.00 54 1023.0
20180421011624 39 316 5.0 9.0 0.00 0.00 0.00 54 1023.0
20180421011131 39 326 7.0 9.0 0.00 0.00 0.00 54 1023.0
20180421010640 39 290 6.0 8.0 0.00 0.00 0.00 54 1023.0
20180421010345 40 294 3.0 8.0 0.00 0.00 0.00 54 1023.0
20180421005630 40 325 3.0 8.0 0.00 0.00 0.00 54 1023.0
20180421005131 40 263 2.0 6.0 0.00 0.00 0.00 53 1023.0
20180421004139 40 287 5.0 8.0 0.00 0.00 0.00 53 1023.0
20180421003130 40 325 7.0 12.0 0.00 0.00 0.00 53 1023.0
20180421002629 41 307 3.0 9.0 0.00 0.00 0.00 53 1023.0
20180421002124 41 316 5.0 9.0 0.00 0.00 0.00 53 1022.2
20180421001624 41 288 6.0 9.0 0.00 0.00 0.00 50 1022.0
20180421001136 41 287 6.0 13.0 0.00 0.00 0.00 50 1022.0
20180421000629 42 302 7.0 13.0 0.00 0.00 0.00 50 1022.0
20180421000240 42 314 8.0 15.0 0.00 0.00 0.00 50 1022.0
20180420235130 42 306 6.0 10.0 0.00 0.00 0.00 48 1021.4
20180420234621 43 318 9.0 13.0 0.00 0.00 0.00 47 1021.0
20180420234140 43 301 8.0 13.0 0.00 0.00 0.00 47 1021.0
20180420232146 44 314 7.0 10.0 0.00 0.00 0.00 47 1021.0
20180420231633 44 276 7.0 13.0 0.00 0.00 0.00 47 1021.0
20180420231139 44 289 6.0 13.0 0.00 0.00 0.00 47 1021.0
20180420230633 45 298 6.0 15.0 0.00 0.00 0.00 46 1020.5
20180420225636 45 317 8.0 15.0 0.00 0.00 0.00 44 1020.0
20180420225126 45 290 6.0 9.0 0.00 0.00 0.00 44 1020.0
20180420224628 46 288 6.0 8.0 0.00 0.00 0.00 44 1020.0
20180420224133 46 299 8.0 15.0 0.00 0.00 0.00 44 1020.0
20180420223634 46 289 7.0 13.0 0.00 0.00 0.00 44 1020.0
20180420223152 46 319 7.0 13.0 0.00 0.00 0.00 44 1020.0
20180420222652 47 331 7.0 13.0 0.00 0.00 0.00 44 1020.0
20180420222151 47 322 6.0 8.0 0.00 0.00 0.00 44 1020.0
20180420221650 47 312 5.0 8.0 0.00 0.00 0.00 44 1020.0
20180420221139 47 300 6.0 12.0 0.00 0.00 0.00 44 1020.0
20180420220629 47 323 6.0 13.0 0.00 0.00 0.00 44 1019.6
20180420220237 48 327 7.0 13.0 0.00 0.00 0.00 44 1019.0
20180420215625 48 290 7.0 15.0 0.00 0.00 0.00 44 1019.0
20180420215129 48 303 8.0 15.0 0.00 0.00 0.00 44 1019.0
20180420214641 48 300 7.0 10.0 0.00 0.00 0.00 44 1019.0
20180420214135 48 307 7.0 12.0 0.00 0.00 0.00 44 1019.0
20180420213637 49 307 7.0 10.0 0.00 0.00 0.00 44 1019.0
20180420213146 49 298 8.0 12.0 0.00 0.08 0.00 44 1019.0
20180420212623 49 299 6.0 13.0 0.00 0.08 0.00 44 1019.0
20180420212132 49 273 5.0 13.0 0.00 0.08 0.00 44 1018.6
20180420211127 50 300 6.0 13.0 0.00 0.08 0.00 44 1018.0
20180420210639 50 296 7.0 13.0 0.00 0.12 0.00 44 1018.0
20180420210242 50 306 8.0 13.0 0.00 0.12 0.00 43 1018.0
20180420205629 51 296 7.0 8.0 0.00 0.12 0.00 43 1018.0
20180420205125 51 282 7.0 12.0 0.00 0.12 0.00 43 1018.0
20180420204625 51 287 5.0 10.0 0.00 0.12 0.00 43 1018.0
20180420204127 51 336 5.0 8.0 0.00 0.12 0.00 43 1018.0
20180420203625 51 313 7.0 12.0 0.00 0.16 0.00 43 1018.0
20180420203148 51 306 6.0 10.0 0.00 0.16 0.00 43 1018.0
20180420202129 51 290 7.0 12.0 0.00 0.16 0.00 43 1018.0
20180420201629 51 313 7.0 9.0 0.00 0.20 0.00 43 1018.0
20180420201129 51 327 8.0 13.0 0.00 0.20 0.00 43 1018.0
20180420200628 52 311 7.0 12.0 0.00 0.20 0.00 43 1018.0
20180420200232 52 288 6.0 10.0 0.00 0.24 0.00 43 1018.0
20180420195618 51 306 6.0 8.0 0.00 0.24 0.00 43 1018.0
20180420195131 52 292 6.0 9.0 0.00 0.24 0.00 43 1018.0
20180420193628 52 310 6.0 12.0 0.00 0.28 0.00 43 1018.0
20180420193138 52 312 7.0 8.0 0.00 0.28 0.00 43 1018.0
20180420192642 52 322 7.0 12.0 0.00 0.28 0.00 43 1018.0
20180420191651 52 311 7.0 12.0 0.00 0.28 0.00 43 1018.0
20180420191139 52 342 8.0 13.0 0.00 0.31 0.00 43 1018.0
20180420190641 52 318 6.0 9.0 0.00 0.31 0.00 43 1018.0
20180420190252 52 309 6.0 10.0 0.00 0.31 0.00 43 1018.0
20180420185153 52 330 6.0 10.0 0.00 0.31 0.00 43 1018.0
20180420184618 52 284 5.0 10.0 0.00 0.31 0.00 43 1018.0
20180420184135 51 298 6.0 9.0 0.00 0.31 0.00 44 1018.0
20180420183651 51 297 7.0 12.0 0.00 0.31 0.00 43 1018.0
20180420183135 51 311 7.0 12.0 0.00 0.31 0.00 43 1018.0
20180420182624 51 314 9.0 13.0 0.00 0.31 0.00 43 1018.0
20180420182124 51 333 10.0 15.0 0.00 0.31 0.00 43 1018.0
20180420181629 51 318 10.0 14.0 0.00 0.31 0.00 43 1018.0
20180420181139 51 305 6.0 13.0 0.00 0.31 0.00 43 1018.0
20180420180628 51 287 5.0 13.0 0.00 0.31 0.00 45 1017.6
20180420175653 50 313 9.0 13.0 0.00 0.31 0.00 44 1017.1
20180420175154 50 306 10.0 13.0 0.00 0.31 0.00 44 1017.5
20180420174149 50 303 6.0 12.0 0.00 0.31 0.00 44 1018.0
20180420173634 50 260 7.0 13.0 0.00 0.31 0.00 44 1018.0
20180420173130 50 320 10.0 15.0 0.00 0.31 0.00 44 1018.0
20180420172623 50 338 10.0 17.0 0.00 0.31 0.00 43 1018.0
20180420172125 51 285 7.0 17.0 0.00 0.31 0.00 44 1017.4
20180420171620 50 340 10.0 18.0 0.00 0.31 0.00 43 1017.0
20180420171155 51 322 7.0 13.0 0.00 0.31 0.00 44 1017.0
20180420164641 49 313 6.0 14.0 0.00 0.31 0.00 45 1018.0
20180420164139 49 318 10.0 15.0 0.00 0.31 0.00 45 1018.0
20180420163654 49 306 9.0 15.0 0.00 0.31 0.00 44 1017.0
20180420163158 49 304 8.0 15.0 0.00 0.31 0.00 44 1017.0
20180420162639 49 300 7.0 15.0 0.00 0.31 0.00 44 1017.0
20180420162121 50 311 9.0 18.0 0.00 0.31 0.00 44 1017.0
20180420161627 49 329 10.0 16.0 0.00 0.31 0.00 44 1017.0
20180420161122 50 295 9.0 13.0 0.00 0.31 0.00 44 1017.0
20180420160624 50 297 7.0 15.0 0.00 0.31 0.00 45 1017.0
20180420160334 49 297 9.0 17.0 0.00 0.31 0.00 45 1017.0
20180420155622 50 321 6.0 17.0 0.00 0.31 0.00 47 1017.0
20180420155122 49 314 9.0 13.0 0.00 0.31 0.00 44 1017.0
20180420154620 49 299 10.0 14.0 0.00 0.31 0.00 44 1017.0
20180420154135 49 305 6.0 14.0 0.00 0.31 0.00 46 1017.0
20180420153630 49 304 7.0 13.0 0.00 0.31 0.00 45 1017.0
20180420153149 49 326 13.0 15.0 0.00 0.31 0.00 44 1017.0
20180420152645 49 345 7.0 15.0 0.00 0.31 0.00 45 1017.0
20180420152141 50 304 7.0 13.0 0.00 0.31 0.00 45 1017.0
20180420151633 50 317 6.0 13.0 0.00 0.31 0.00 46 1017.0
20180420151144 49 290 7.0 15.0 0.00 0.31 0.00 46 1017.0
20180420150645 49 323 7.0 15.0 0.00 0.31 0.00 46 1017.0
20180420150240 50 312 8.0 12.0 0.00 0.31 0.00 46 1017.0
20180420145626 50 281 6.0 9.0 0.00 0.31 0.00 46 1017.0
20180420145150 49 266 6.0 9.0 0.00 0.31 0.00 46 1017.0
20180420144701 48 261 6.0 9.0 0.00 0.31 0.00 46 1017.0
20180420144134 48 313 6.0 9.0 0.00 0.31 0.00 46 1017.0
20180420143652 48 327 6.0 10.0 0.00 0.31 0.00 47 1016.6
20180420143149 47 327 9.0 15.0 0.00 0.31 0.00 45 1016.0
20180420142647 47 314 9.0 15.0 0.00 0.31 0.00 46 1016.0
20180420141654 46 317 7.0 13.0 0.00 0.31 0.00 47 1016.0
20180420141152 46 317 9.0 13.0 0.00 0.31 0.00 47 1016.0
20180420140634 46 299 8.0 16.0 0.00 0.31 0.00 47 1016.6
20180420135650 46 344 9.0 16.0 0.00 0.31 0.00 47 1017.0
20180420135149 46 280 7.0 13.0 0.00 0.31 0.00 48 1016.6
20180420134633 46 282 8.0 17.0 0.00 0.31 0.00 48 1016.0
20180420134131 46 270 8.0 13.0 0.00 0.31 0.00 49 1016.0
20180420133625 46 265 7.0 10.0 0.00 0.31 0.00 48 1016.0
20180420133145 45 290 7.0 10.0 0.00 0.31 0.00 49 1016.0
20180420132717 45 280 7.0 10.0 0.00 0.31 0.00 49 1016.0
20180420132125 45 334 7.0 15.0 0.00 0.31 0.00 50 1016.0
20180420131203 44 320 8.0 13.0 0.00 0.31 0.00 50 1016.0
20180420130628 44 295 6.0 13.0 0.00 0.31 0.00 51 1016.0
20180420125635 43 316 7.0 8.0 0.00 0.31 0.00 52 1016.0
20180420125149 43 292 8.0 15.0 0.00 0.31 0.00 53 1016.0
20180420124618 43 343 7.0 15.0 0.00 0.31 0.00 53 1016.0
20180420124119 42 303 7.0 13.0 0.00 0.31 0.00 54 1016.0
20180420123700 42 308 7.0 13.0 0.00 0.31 0.00 53 1016.0
20180420123147 42 313 8.0 13.0 0.00 0.31 0.00 53 1016.0
20180420122143 41 346 7.0 13.0 0.00 0.31 0.00 53 1016.0
20180420120158 39 306 6.0 15.0 0.00 0.31 0.00 56 1016.0
20180420115203 39 305 5.0 15.0 0.00 0.31 0.00 57 1016.0
20180420114141 38 297 6.0 9.0 0.00 0.31 0.00 58 1016.0
20180420113618 37 293 7.0 12.0 0.00 0.31 0.00 58 1015.5
20180420113143 36 278 5.0 12.0 0.00 0.31 0.00 61 1015.0
20180420112635 35 323 3.0 9.0 0.00 0.31 0.00 63 1015.0
20180420112201 34 331 2.0 9.0 0.00 0.31 0.00 65 1015.0
20180420111700 34 322 3.0 7.0 0.00 0.31 0.00 65 1015.0
20180420110618 33 332 3.0 12.0 0.00 0.31 0.00 66 1015.0
20180420110131 32 316 3.0 6.0 0.00 0.31 0.00 66 1015.0
20180420105634 32 298 2.0 3.0 0.00 0.31 0.00 67 1015.0
20180420105139 32 290 2.0 3.0 0.00 0.31 0.00 67 1015.0
20180420104635 32 254 0.0 6.0 0.00 0.31 0.00 67 1015.0
20180420103133 31 253 1.0 2.0 0.00 0.31 0.00 67 1015.0
20180420102620 31 283 2.0 6.0 0.00 0.31 0.00 67 1015.0
20180420102132 31 273 0.0 3.0 0.00 0.31 0.00 67 1014.1
20180420101628 31 322 2.0 6.0 0.00 0.31 0.00 67 1014.0
20180420095622 31 285 3.0 6.0 0.00 0.31 0.00 67 1014.0
20180420094133 31 252 3.0 6.0 0.00 0.31 0.00 67 1014.0
20180420093140 31 311 2.0 5.0 0.00 0.31 0.00 66 1014.0
20180420092626 32 305 0.0 5.0 0.00 0.31 0.00 66 1014.0